www.pogodaiklimat.ru

Погода и климат >> Архив погоды >> Индия >> Harnai


ПОГОДА в Harnai

  • Прогноз погоды в Harnai
  • Монитор погоды в Harnai
  • Климат города

АРХИВ ПОГОДЫ в Harnai

Время (UTC), дата Ветер
(напр.,м/с)
 
Видим.   Явления Облачность Т
(С)
Тd
(С)
f
(%)
Тe
(С)
Тes
(С)
Комфортность P
(гПа)
Po
(гПа)
Тmin
(С)
Tmax
(С)
R
(мм)
R24
(мм)
S
(см)
03 9.12 штиль 0 4000 м мгла {туман} 4/4 600 м
[Sc diur, vesp]
+24.2 0.0 20 +23 +24 комфорт 1013.6 1014.0 +23.1
06 9.12 СЗ 2 4000 м мгла {туман} 4/4 600 м
[Sc diur, vesp]
+27.0 0.0 17 +25 +32 комфорт 1013.8 1014.0
09 9.12 СЗ 2 4000 м мгла {туман} 3/3 600 м
[Sc diur, vesp]
+28.0 -20.1 3 +24 +31 комфорт 1011.3 1011.0
12 9.12 СЗ 2 4000 м мгла {туман} 3/3 600 м
[Sc diur, vesp]
+27.0 -20.1 3 +23 +23 комфорт 1011.0 1011.0 +29.0
03 10.12 СВ 2 4000 м мгла {туман} 3/3 600 м
[Sc diur, vesp]
+23.8 -20.1 4 +21 +22 комфорт 1014.2 1014.0 +22.5
06 10.12 ЮЗ 1 4000 м мгла {туман} 3/3 600 м
[Sc diur, vesp]
+26.6 0.0 18 +25 +34 комфорт 1014.6 1015.0
09 10.12 ЮЗ 1 4000 м мгла {туман} 5/1 600 м
[Sc diur, vesp Ci fib]
+29.7 0.0 15 +27 +37 жарко 1011.8 1012.0
12 10.12 С 2 4000 м мгла {туман} 3/1 600 м
[Sc diur, vesp Ci fib]
+28.1 -20.1 3 +24 +24 комфорт 1011.8 1012.0 +30.8
03 11.12 С 1 4000 м мгла {туман} 3/3 600 м
[Sc diur, vesp]
+24.7 0.0 20 +23 +25 комфорт 1015.8 1016.0 +22.2
06 11.12 С 1 4000 м мгла {туман} 3/1 600 м
[Sc diur, vesp Ci fib]
+26.5 0.0 18 +25 +36 комфорт 1015.7 1016.0
09 11.12 С 1 4000 м мгла {туман} 3/1 600 м
[Sc diur, vesp Ci fib]
+26.5 0.0 18 +25 +34 комфорт 1015.7 1016.0
12 11.12 С 5 4000 м мгла {туман} 1/1 600 м
[Sc diur, vesp]
+26.8 -20.1 4 +23 +23 комфорт 1013.0 1013.0 +29.0
03 12.12 С 1 4000 м мгла {туман} ясно +24.2 0.0 20 +23 +25 комфорт 1016.6 1017.0 +21.1
06 12.12 С 2 4000 м мгла {туман} ясно +26.2 0.0 18 +24 +37 комфорт 1016.3 1016.0
09 12.12 С 3 4000 м мгла {туман} ясно +27.0 -20.1 3 +23 +31 комфорт 1013.5 1014.0
12 12.12 С 3 4000 м мгла {туман} ясно +26.2 -20.1 4 +22 +23 комфорт 1013.5 1014.0 +28.1
03 13.12 штиль 0 10 км ясно +22.1 -20.1 5 +20 +22 1016.9 1017.0 +20.6
06 13.12 С 1 10 км 1/1 600 м
[Sc diur, vesp]
+25.6 0.0 19 +24 +36 комфорт 1016.8 1017.0
09 13.12 С 3 10 км ясно +26.6 0.0 18 +25 +32 комфорт 1013.3 1013.0
12 13.12 С 4 10 км ясно +25.2 0.0 19 +24 +24 комфорт 1014.4 1014.0 +26.5
03 14.12 штиль 0 10 км 3/0
[Ci fib]
+21.7 -20.1 5 +19 +22 1017.0 1017.0 +20.2
06 14.12 С 1 10 км 4/1 600 м
[Sc diur, vesp Ci sp]
+25.7 0.0 19 +24 +36 комфорт 1017.3 1017.0
09 14.12 С 1 10 км 5/1 600 м
[Sc diur, vesp Ac trans Ci sp]
+26.8 0.0 17 +25 +32 комфорт 1014.8 1015.0
12 14.12 С 3 10 км 8/3
[Sc diur, vesp Ac trans Ci sp]
+25.9 0.0 18 +24 +24 комфорт 1014.2 1014.0 +27.8
03 15.12 штиль 0 4000 м мгла {туман} 4/3 600 м
[Sc diur, vesp Ac trans]
+22.4 -20.1 5 +20 +21 1016.2 1016.0 +20.5
06 15.12 С 1 4000 м мгла {туман} 3/1 600 м
[Sc diur, vesp Ac trans]
+27.3 0.0 17 +25 +36 комфорт 1016.4 1016.0
09 15.12 С 2 4000 м мгла {туман} 3/1 600 м
[Sc diur, vesp Ac trans]
+28.0 0.0 16 +26 +33 жарко 1014.1 1014.0

 

Местоположение метеостанции Harnai (Maharashtra, Индия): широта 17.82 долгота 73.10 высота над уровнем моря 20 м.

В архиве по умолчанию представлена погода в Harnai за последнюю неделю. Архивные данные за месяц целиком и за предыдущие месяцы, начиная с января 2011 года, Вы можете получить, выбрав интересующий диапазон дат из раскрывающегося списка и нажав кнопку "Ввод!".

Внимание! Время в таблицах - всемирное. Для получения местного времени необходимо прибавить поправку, которая в Harnai равна 5.5 ч.

Смотрите также архив погоды в соседних городах и на ближайших метеорологических станциях:

Погода в Mahabaleshwar (Maharashtra, Индия) (62 км)
Погода в Bhira (Maharashtra, Индия) (77 км)
Погода в Alibag (Maharashtra, Индия) (93 км)
Погода в Ratnagiri (Maharashtra, Индия) (97 км)
Погода в Satara (Maharashtra, Индия) (106 км)
Погода в Pune (Maharashtra, Индия) (112 км)
Погода в Mumbai Colaba (Maharashtra, Индия) (124 км)
Погода в Mumbai (Maharashtra, Индия) (147 км)
Погода в Kolhapur (Maharashtra, Индия) (173 км)
Погода в Sangli (Maharashtra, Индия) (192 км)

Пояснения к столбцам:

Ветер - указаны скорость ветра в м/с - средняя за 10 мин, порывы в срок и между сроками (в фигурных скобках) и направление, откуда дует ветер: С - северный, СВ - северо-восточный, В - восточный, ЮВ - юго-восточный, Ю - южный, ЮЗ - юго-западный, З - западный, СЗ - северо-западный.
Видимость - горизонтальная дальность видимости в метрах или километрах. При видимости от 1 до 10 км при отсутствии осадков обычно наблюдается дымка, при ухудшении видимости до 1 км и менее - туман. В сухую погоду видимость может ухудшаться дымом, пылью или мглою.
Явления - указаны атмосферные явления, наблюдавшиеся в срок или в последний час перед сроком; фигурными скобками обозначены явления, наблюдавшиеся между сроками (за 1-3 часа до срока); квадратными скобками обозначены град или гололедные отложения с указанием их диаметра в мм.
Облачность - указаны через наклонную черту общая и нижняя облачность в баллах и высота нижней границы облаков в метрах; квадратными скобками обозначены формы облаков: Ci - перистые, Cs - перисто-слоистые, Cc - перисто-кучевые, Ac - высококучевые, As - высокослоистые, Sc - слоисто-кучевые, Ns - слоисто-дождевые, Cu - кучевые, Cb - кучево-дождевые. Подробнее классификацию облаков см. в Атласе облаков (PDF).
T - Температура воздуха - температура, измеренная на высоте 2 м над землей.
Td - Температура точки росы - температура, при понижении до которой содержащийся в воздухе водяной пар достигнет насыщения.
f - Относительная влажность воздуха - влажноcть воздуха, измеренная на высоте 2 м над землей.
Te - Эффективная температура - температура, которую ощущает одетый по сезону человек в тени. Характеристика душности погоды. При расчете учитывается влияние влажности воздуха и скорости ветра на теплоощущения человека.
Tes - Эффективная температура на солнце - температура, которую ощущает человек, с поправкой на солнечный нагрев. Характеристика знойности погоды. Зависит от высоты солнца над горизонтом, облачности и скорости ветра. Ночью, в пасмурную погоду, а также при ветре 12 м/с и более поправка равна нулю.
P - Атмосферное давление - приведенное к уровню моря атмосферное давление.
Po - Атмосферное давление - измеренное на уровне метеостанции атмосферное давление.
Tmin - Минимальная температура - минимум температуры воздуха на высоте 2 м над землей.
Tmax - Максимальная температура - максимум температуры воздуха на высоте 2 м над землей.
R - Количество осадков - Количество выпавших осадков за период времени, мм. При наведении курсора мыши на число - период времени, за который выпало указанное количество осадков.
R24 - Количество осадков - Количество выпавших осадков за 24 часа, мм.
S - Снежный покров - Высота снежного покрова, см. При наведении курсора мыши на число - состояние снежного покрова и степень покрытия местности в баллах.